Location: Newark
(41.9000°N, 12.4833°E)
Time: 18:01:09
(UTC+00:00)

NOAA 18 - Pass Details

Date: 22 May 2019
Orbit: 840 x 861 km, 99.1° (Epoch: 15 June)

Event Time Altitude Azimuth Distance (km) Brightness Sun altitude
Rises 20:41:48 0° 215° (SW) 3,418 8.2 -19.2°
Reaches altitude 10° 20:45:28 10° 240° (WSW) 2,491 7.7 -19.6°
Maximum altitude 20:48:12 14° 270° (W) 2,234 7.8 -19.9°
Drops below altitude 10° 20:50:57 10° 300° (WNW) 2,503 8.6 -20.2°
Sets 20:54:41 0° 326° (NW) 3,448 10.0 -20.6°
